Location: East Guldeford
(50.9500°N, 0.7500°E)
Time: 07:36:20
(UTC+00:00)

Cosmos 2228 Rocket - Pass Details

Date: 12 May 2021
Orbit: 618 x 651 km, 82.5° (Epoch: 16 June)

Event Time Altitude Azimuth Distance (km) Brightness Sun altitude
Exits shadow 22:07:20 18° 205° (SSW) 1,557 4.8 -16.9°
Maximum altitude 22:10:35 62° 283° (WNW) 713 3.5 -17.1°
Drops below altitude 10° 22:15:03 10° 5° (N) 2,032 6.6 -17.4°
Sets 22:17:21 0° 9° (N) 2,952 7.5 -17.5°
